Location: La Pernelle
(49.6188°N, 1.2999°W)
Time: 11:11:02
(UTC+00:00)

Meteor 2-20 - Pass Details

Date: 01 November 2021
Orbit: 939 x 958 km, 82.5° (Epoch: 08 December)

Event Time Altitude Azimuth Distance (km) Brightness Sun altitude
Rises 03:01:09 0° 135° (SE) 3,603 7.7 -37.5°
Reaches altitude 10° 03:04:33 10° 116° (ESE) 2,660 7.2 -37.0°
Maximum altitude 03:08:11 17° 79° (E) 2,215 7.0 -36.5°
Drops below altitude 10° 03:11:50 10° 42° (NE) 2,666 7.4 -36.0°
Sets 03:15:14 0° 23° (NNE) 3,615 8.0 -35.4°
